STARLINK-1607 (46145 NORAD) Tracking and Keplerian Element Data

This shows tracking and keplerian element data for the satellite.

Feedback or suggestion? Click here.




ElementValue
Catalog46145
NameSTARLINK-1607
Epoch Orbit177
Epoch Day338.66668981
Epoch Year2020
RAAN284.8677
Inclination53.0081
Eccentricity0.0001498
Argument of Perigee67.0259
Mean Anonmoly106.3464
Mean Motion15.05554492
Decay Rate0.00024157
L11 46145U 20057AE 20338.66668981 .00024157 00000-0 16726-2 0 9993
L22 46145 53.0081 284.8677 0001498 67.0259 106.3464 15.05554492 1771

Live tracking and technical data element details for STARLINK-1607 (NORAD 46145). STARLINK-1607 can be tracked NOW for your location showing map with azimuth and elevation plus other details from your city location.

Track the satellite on the map from your city or location and see movement details for azimuth, elevation, latitude, longitude, range, height, and movement on the map or in text.







IsCatalogInMostPopularTable: catalog: 46145, numindb: 17
Update: records affected: 1



GetName: 46145 STARLINK-1607

Hit Count: updated at: Sat, 05 Dec 2020 04:47:21 GMT